TimeCST,TemperatureF,Dew PointF,Humidity,Sea Level PressureIn,VisibilityMPH,Wind Direction,Wind SpeedMPH,Gust SpeedMPH,PrecipitationIn,Events,Conditions,WindDirDegrees,DateUTC
12:03 AM,62.6,60.8,94,30.21,2.5,SE,3.5,-,N/A,,Mostly Cloudy,140,2012-12-04 06:03:00
12:06 AM,62.6,60.8,94,30.21,1.5,SE,3.5,-,N/A,,Mostly Cloudy,140,2012-12-04 06:06:00
12:11 AM,62.6,60.8,94,30.21,0.8,SE,5.8,-,N/A,,Mostly Cloudy,140,2012-12-04 06:11:00
12:22 AM,62.6,60.8,94,30.20,0.5,SSE,4.6,-,N/A,Fog,Fog,150,2012-12-04 06:22:00
12:40 AM,62.6,60.8,94,30.20,0.2,SE,4.6,-,N/A,Fog,Fog,140,2012-12-04 06:40:00
12:56 AM,62.1,61.0,96,30.20,0.2,SE,4.6,-,N/A,Fog,Fog,130,2012-12-04 06:56:00
1:25 AM,60.8,60.8,100,30.21,0.2,SE,4.6,-,N/A,Fog,Fog,130,2012-12-04 07:25:00
1:34 AM,62.6,60.8,94,30.21,0.5,SE,3.5,-,N/A,Fog,Fog,130,2012-12-04 07:34:00
1:56 AM,61.0,60.1,97,30.19,0.5,ESE,4.6,-,N/A,Fog,Fog,120,2012-12-04 07:56:00
2:10 AM,60.8,60.8,100,30.20,1.0,ESE,5.8,-,N/A,,Overcast,110,2012-12-04 08:10:00
2:33 AM,60.8,60.8,100,30.20,0.5,ESE,3.5,-,N/A,Fog,Fog,110,2012-12-04 08:33:00
2:56 AM,61.0,59.0,93,30.19,0.8,East,3.5,-,N/A,,Overcast,90,2012-12-04 08:56:00
3:37 AM,60.8,60.8,100,30.20,1.5,East,4.6,-,N/A,,Mostly Cloudy,100,2012-12-04 09:37:00
3:56 AM,61.0,60.1,97,30.20,2.0,East,4.6,-,N/A,,Mostly Cloudy,80,2012-12-04 09:56:00
4:23 AM,62.6,60.8,94,30.20,3.0,East,3.5,-,N/A,,Scattered Clouds,100,2012-12-04 10:23:00
4:46 AM,62.6,60.8,94,30.20,4.0,Calm,Calm,-,N/A,,Mostly Cloudy,0,2012-12-04 10:46:00
4:56 AM,62.1,61.0,96,30.20,4.0,ESE,3.5,-,N/A,,Mostly Cloudy,110,2012-12-04 10:56:00
5:46 AM,60.8,60.8,100,30.21,3.0,East,5.8,-,N/A,,Mostly Cloudy,100,2012-12-04 11:46:00
5:56 AM,62.1,60.1,93,30.21,3.0,ESE,5.8,-,N/A,,Mostly Cloudy,110,2012-12-04 11:56:00
6:07 AM,62.6,60.8,94,30.22,2.0,ESE,6.9,-,N/A,,Overcast,110,2012-12-04 12:07:00
6:24 AM,62.6,62.6,100,30.22,1.0,SE,6.9,-,N/A,,Overcast,140,2012-12-04 12:24:00
6:30 AM,62.6,62.6,100,30.22,0.8,SE,5.8,-,N/A,,Overcast,130,2012-12-04 12:30:00
6:56 AM,63.0,62.1,97,30.22,0.2,SE,5.8,-,N/A,Fog,Fog,140,2012-12-04 12:56:00
7:56 AM,64.9,64.0,97,30.24,0.2,SE,4.6,-,N/A,Fog,Fog,140,2012-12-04 13:56:00
8:12 AM,64.4,64.4,100,30.25,0.8,SE,5.8,-,N/A,,Mist,140,2012-12-04 14:12:00
8:44 AM,64.4,64.4,100,30.26,1.0,SE,5.8,-,0.00,Rain,Light Rain,140,2012-12-04 14:44:00
8:56 AM,66.9,66.0,97,30.27,3.0,SE,5.8,-,0.00,Rain,Light Rain,140,2012-12-04 14:56:00
9:09 AM,66.2,66.2,100,30.28,4.0,SE,8.1,-,0.00,Rain,Light Rain,140,2012-12-04 15:09:00
9:23 AM,66.2,64.4,94,30.28,4.0,SSE,8.1,-,0.00,,Mostly Cloudy,150,2012-12-04 15:23:00
9:31 AM,66.2,66.2,100,30.28,4.0,SSE,5.8,-,0.00,,Mostly Cloudy,160,2012-12-04 15:31:00
9:56 AM,69.1,66.0,90,30.27,7.0,SE,10.4,-,0.00,,Mostly Cloudy,140,2012-12-04 15:56:00
10:22 AM,71.6,64.4,78,30.27,7.0,SSE,8.1,-,N/A,,Mostly Cloudy,150,2012-12-04 16:22:00
10:42 AM,71.6,64.4,78,30.26,7.0,SSE,10.4,-,N/A,,Mostly Cloudy,150,2012-12-04 16:42:00
10:56 AM,73.0,64.0,73,30.25,7.0,SSE,8.1,-,N/A,,Mostly Cloudy,150,2012-12-04 16:56:00
11:34 AM,73.4,62.6,69,30.25,7.0,SSE,10.4,-,N/A,,Mostly Cloudy,150,2012-12-04 17:34:00
11:56 AM,73.9,62.1,66,30.24,7.0,SSE,11.5,-,N/A,,Mostly Cloudy,160,2012-12-04 17:56:00
12:56 PM,73.0,63.0,71,30.21,7.0,SSE,10.4,-,N/A,,Mostly Cloudy,150,2012-12-04 18:56:00
1:56 PM,73.0,63.0,71,30.19,8.0,ESE,9.2,-,0.01,,Mostly Cloudy,110,2012-12-04 19:56:00
2:12 PM,73.4,62.6,69,30.19,8.0,SSE,10.4,-,N/A,,Mostly Cloudy,150,2012-12-04 20:12:00
2:56 PM,73.0,63.0,71,30.18,10.0,SSE,12.7,-,N/A,,Mostly Cloudy,160,2012-12-04 20:56:00
3:56 PM,71.1,63.0,75,30.19,8.0,South,10.4,-,0.02,,Mostly Cloudy,170,2012-12-04 21:56:00
4:56 PM,68.0,63.0,84,30.18,10.0,SSE,6.9,-,N/A,,Mostly Cloudy,150,2012-12-04 22:56:00
5:56 PM,66.9,63.0,87,30.18,10.0,SSE,6.9,-,N/A,,Scattered Clouds,150,2012-12-04 23:56:00
6:56 PM,66.0,63.0,90,30.19,10.0,SE,5.8,-,N/A,,Scattered Clouds,140,2012-12-05 00:56:00
7:56 PM,64.9,63.0,93,30.20,9.0,SSE,4.6,-,N/A,,Mostly Cloudy,150,2012-12-05 01:56:00
8:56 PM,64.0,62.1,93,30.20,10.0,SE,3.5,-,N/A,,Mostly Cloudy,140,2012-12-05 02:56:00
9:56 PM,63.0,61.0,93,30.19,10.0,SE,5.8,-,N/A,,Scattered Clouds,140,2012-12-05 03:56:00
10:56 PM,62.1,60.1,93,30.17,9.0,SSE,5.8,-,N/A,,Scattered Clouds,150,2012-12-05 04:56:00
11:56 PM,61.0,60.1,97,30.16,6.0,SE,4.6,-,N/A,,Scattered Clouds,130,2012-12-05 05:56:00